Regional Weather Roundup
Issued by NWS

Home | Current Version | Previous Version | Graphics & Text | Print | Product List | Glossary On
Versions: 1 2 3 4 5 6 7 8 9 10 11 12 13 14 15 16 17 18 19 20 21 22 23 24 25 26 27 28 29 30 31 32 33 34 35 36 37 38 39 40 41 42 43 44 45 46 47 48 49 50
000
ASUS45 KTFX 221819
RWRMT
MONTANA HOURLY WEATHER ROUNDUP
NATIONAL WEATHER SERVICE GREAT FALLS MT
1119 AM MST SAT NOV 22 2014

NOTE: "FAIR" INDICATES FEW OR NO CLOUDS BELOW 12000 FEET WITH NO
SIGNIFICANT WEATHER AND/OR OBSTRUCTIONS TO VISIBILITY.

* THESE STATIONS ARE NOT UNDER NWS QUALITY CONTROL. THEY DO NOT
   REPORT WEATHER SUCH AS PRECIPITATION OR FOG.

MTZ001>007-043-221900-
WEST OF THE DIVIDE
CITY           SKY/WX    TMP DP  RH WIND       PRES   REMARKS
KALISPELL      CLOUDY    39  30  70 SW15      29.47R WCI  31
MISSOULA       PTSUNNY   39  34  82 NW9       29.57R WCI  33
BUTTE          CLOUDY    36  28  73 W12G20    29.51R WCI  28
MULLAN PASS    CLOUDY    25  21  85 VRB5G23   29.52R WCI  19
* EUREKA APT   PTCLDY    41  27  58 SE7       29.45R
* HAMILTON APT CLOUDY    39  30  70 NW13      29.59R WCI  31
* LIBBY APT    PTSUNNY   41  27  58 S3        29.53R
* LINCOLN      N/A       40  29  65 SW7G15     N/A   WCI  35
* LOOKOUT PASS N/A       32  25  75 NE4G14     N/A
* POLSON       N/A       37  31  79 E3G10      N/A
* RONAN APT    PTCLDY    39  28  65 SW18G25    N/A   WCI  30
* SEELEY LAKE  N/A       35  31  85 W7G17      N/A   WCI  29
* THOMP F APT  PTCLDY    29  28  96 SE4G16     N/A
* YAAK HILL    N/A       40  24  53 S3         N/A
$$

MTZ008-052>055-221900-
SOUTHWEST MONTANA
CITY           SKY/WX    TMP DP  RH WIND       PRES   REMARKS
BOZEMAN        LGT RAIN  39  32  76 SW21G28   29.48R WCI  29
DILLON         PTSUNNY   37  32  82 W13G25    29.51R WCI  29
* W YELLOWSTON PTCLDY    32  29  89 SW6G15     N/A   WCI  26
* ENNIS APT    PTSUNNY   37  34  89 SE18G24    N/A   WCI  27
* THREE FORKS  PTSUNNY   43  43 100 N/A        N/A
* BOULDER HILL N/A       38  24  57 S12G17     N/A   WCI  30
* MONIDA PASS  N/A       29  29 100 SE23       N/A   WCI  15
* RAYNOLDS PAS N/A       35  21  57 S22G28     N/A   WCI  23
* WHITEHALL    N/A       42  33  71 S4G9       N/A
* WISE RIVER   N/A       35  29  79 W10G22     N/A   WCI  27
$$

MTZ009>010-012-014-046-048-049-054-221900-
EAST SLOPES AND CENTRAL MONTANA
CITY           SKY/WX    TMP DP  RH WIND       PRES   REMARKS
CUT BANK       SUNNY     41  25  53 W29G45    29.25R
GREAT FALLS    SUNNY     46  27  48 W31G39    29.31R
HELENA         PTCLDY    48  25  41 W23G38    29.40F
MALMSTROM AFB  SUNNY     48  27  44 W29G43    29.33S
* CONRAD       SUNNY     43  30  60 SW18G25    N/A
* DEARBORN     N/A       48  24  39 S27G33     N/A
* EAST GLACIER N/A       32  23  69 W12G19     N/A   WCI  23
* MONARCH      N/A       41  21  45 W26G35     N/A
* PENDROY      N/A       39  21  48 W26G32     N/A   WCI  28
* SAINT MARY   N/A       33  26  75 SW11G23    N/A   WCI  24
* SWEET GRASS  N/A       40  27  60 SW32G46    N/A   WCI  28
* WHITE SULPH  N/A       43  27  53 SW11G25    N/A
$$

MTZ011-013-016-021-035-040-045-047-050-051-221900-
NORTH CENTRAL MONTANA
CITY           SKY/WX    TMP DP  RH WIND       PRES   REMARKS
HAVRE          PTCLDY    48  34  59 SW26G37   29.21S
LEWISTOWN      PTSUNNY   46  30  54 SW26G32   29.33F
* N BAR RANCH  SUNNY     50  19  29 W22       29.31F
* CHINOOK      PTCLDY    50  32  50 SW25G38   29.19R
* FORT BENTON  SUNNY     52  28  40 SW25G37   29.28R
* MALTA APT    PTCLDY    43  30  60 N/A        N/A
* CHESTER      N/A       44  26  49 W13G21     N/A
* DENTON       N/A       50  27  41 SW27G35    N/A
* JUDITH GAP   N/A       42  35  76 SW12G20    N/A
* LOMA         N/A       51  31  46 SW27G55    N/A
$$

MTZ017>020-022>027-061-062-221900-
NORTHEAST MONTANA
CITY           SKY/WX    TMP DP  RH WIND       PRES   REMARKS
GLASGOW        CLOUDY    37  30  76 SE12      29.23F WCI  29
GLENDIVE       CLOUDY    37  28  70 S10       29.35F WCI  30
JORDAN         CLOUDY    45  34  65 SW17G28   29.26F
SIDNEY         PTSUNNY   37  30  76 S7        29.33F WCI  32
WOLF POINT     CLOUDY    37  32  82 NE3       29.27F
* BEAVER HILL  N/A       40  27  60 S19G24     N/A   WCI  31
* CIRCLE       N/A       40  33  76 SW5G12     N/A   WCI  36
* LINDSAY DVD  N/A       42  32  68 SW23G32    N/A
* NAVAJO       N/A       38  30  73 S9         N/A   WCI  32
* PLENTYWOOD A CLOUDY    37  30  76 SE12      29.26F WCI  29
* POPLAR APT   CLOUDY    41  30  65 N/A       29.27F
* SACO         N/A       40  31  70 SE4        N/A
* SCOBEY APT   CLOUDY    39  27  62 SE8        N/A   WCI  33
$$

MTZ028>042-056>058-221900-
SOUTHCENTRAL AND SOUTHEAST MONTANA
CITY           SKY/WX    TMP DP  RH WIND       PRES   REMARKS
BAKER          CLOUDY    43  27  53 W15G21    29.41R
BILLINGS       PTSUNNY   50  28  43 W18G29    29.41S
LIVINGSTON     LGT RAIN  39  34  82 SW29G37   29.44F WCI  27
MILES CITY     LGT RAIN  43  37  79 W7        29.36F
* BIG TIMBER A CLOUDY    37  36  96 SW20G28   29.45S WCI  27
* FORSYTH APT  PTSUNNY   50  36  59 CALM      29.35F
* LAUREL APT   PTCLDY    48  27  44 S9         N/A
* ALZADA       N/A       46  27  48 S8         N/A
* LAME DEER    N/A       49  30  48 SW8        N/A
* REED POINT   N/A       42  37  83 W27G38     N/A
* ROSCOE HILL  N/A       44  22  42 SW6G26     N/A
$$

REGIONAL REPORTS...DAKOTAS
CITY           SKY/WX    TMP DP  RH WIND       PRES   REMARKS
WILLISTON      CLOUDY    39  28  65 S6        29.32F WCI  35
DICKINSON      CLOUDY    39  27  62 S14       29.34F WCI  31
BEACH          CLOUDY    39  28  65 SW16      29.37S WCI  30
CROSBY         CLOUDY    39  36  89 S3        29.29F
TIOGA          CLOUDY    37  36  96 SE8       29.34F WCI  31
BISMARCK       CLOUDY    39  28  65 SE6       29.44F WCI  35
GRAND FORKS    SUNNY     39  28  65 S8        29.55F WCI  33
FARGO          SUNNY     43  28  56 S12       29.57F
BUFFALO SD     CLOUDY    45  28  51 W3        29.34F
RAPID CITY     PTSUNNY   54  25  33 W17       29.45S
$$

REGIONAL REPORTS...WYOMING/IDAHO/WASHINGTON
CITY           SKY/WX    TMP DP  RH WIND       PRES   REMARKS
GILLETTE       CLOUDY    43  27  53 SW22G32   29.45F
SHERIDAN       PTSUNNY   59  25  27 SW9G23    29.40F
CODY           PTCLDY    45  30  56 SW21G28   29.47F
YELLOWSTONE LA PTSUNNY   32  28  85 VRB3      29.59F
SALMON         PTSUNNY   37  28  70 N20G35    29.57R WCI  27
MULLAN PASS    CLOUDY    25  21  85 VRB5G23   29.52S WCI  19
SAND POINT     CLOUDY    37  32  82 SW9       29.61R WCI  30
SPOKANE        PTCLDY    39  30  70 SW12      29.64R WCI  32
$$

REGIONAL REPORTS...ALBERTA
CITY           SKY/WX    TMP DP  RH WIND       PRES   REMARKS
CALGARY        PTSUNNY   39  23  53 NW14G23   29.14R WCI  31
LETHBRIDGE     PTSUNNY   46  25  44 W30G47    29.16R
MEDICINE HAT   PTSUNNY   41  32  70 SW21G28   29.09R
EDMONTON       LGT SNOW  30  28  92 NE8       29.16R VSB 2    WCI  22
WATERTON GATE  N/A       37  23  57 SW31G47    N/A   WCI  24
CARDSTON       N/A       41  25  53 W22G37     N/A
MILK RIVER     N/A       43  28  56 W28G37     N/A
$$

REGIONAL REPORTS...SASKATCHEWAN
CITY           SKY/WX    TMP DP  RH WIND       PRES   REMARKS
SWIFT CURRENT  PTSUNNY   36  34  92 S14G20    29.09F WCI  27
REGINA         LGT RAIN  34  32  92 SE20G26   29.22F WCI  23
VAL MARIE      N/A       36  30  79 S14        N/A   WCI  27
ASSINIBOIA     N/A       37  30  76 S10        N/A   WCI  30
CORONACH       N/A       39  30  70 SE12       N/A   WCI  32

$$



USA.gov is the U.S. government's official web portal to all federal, state and local government web resources and services.